Flint, MI

4:15 PM EDT on July 25, 2017 (GMT -0400)
Bishop International

Weather History for KFNT - July, 2014

Change the Weather History Date:

Thursday, July 3, 2014

  Actual Average Record
Temperature  
Mean Temperature 63 °F 70 °F  
Max Temperature 73 °F 82 °F 99 °F (1921)
Min Temperature 53 °F 59 °F 45 °F (1968)
Degree Days  
Heating Degree Days 2 1  
Month to date heating degree days 2 3  
Since 1 June heating degree days 24 69  
Since 1 July heating degree days 2 3  
Cooling Degree Days 0 6  
Month to date cooling degree days 18 18  
Year to date cooling degree days 218 162  
Since 1 June cooling degree days 170 130  
Growing Degree Days 13 (Base 50)    
Moisture  
Dew Point 54 °F    
Average Humidity 72    
Maximum Humidity 90    
Minimum Humidity 53    
Precipitation  
Precipitation 0.01 in 0.10 in 1.10 in (1981)
Month to date precipitation 0.86 0.29  
Year to date precipitation 18.27 14.35  
Snow  
Snow 0.00 in 0.00 in 0.00 in ()
Month to date snowfall 0.0 0.0  
Since 1 June snowfall 0.0 0.0  
Since 1 July snowfall 0.0 0.0  
Snow Depth 0.00 in    
Sea Level Pressure  
Sea Level Pressure 30.02 in    
Wind  
Wind Speed 9 mph (North)    
Max Wind Speed 18 mph    
Max Gust Speed 23 mph    
Visibility 9 miles    
Events Rain    
T = Trace of Precipitation, MM = Missing Value Source: NWS Daily Summary

Daily Weather History Graph

Daily Weather History Graph

Search for Another Location

Airport or City:

Trip Planner

Search our weather history database for the weather conditions in past years. The results will help you decide how hot, cold, wet, or windy it might be!

Date:

Astronomy

Jul. 03, 2014 Rise Set
Actual Time 6:00 AM EDT 9:17 PM EDT
Civil Twilight 5:25 AM EDT 9:52 PM EDT
Nautical Twilight 4:40 AM EDT 10:37 PM EDT
Astronomical Twilight 3:44 AM EDT 11:32 PM EDT
Moon 12:08 PM EDT (7/3) 12:01 AM EDT (7/3)
Length of Visible Light 16h 26m
Length of Day
15h 16m
Waxing Crescent, 33% of the Moon is Illuminated
Jul 3
Waxing Crescent
Jul 5
First Quarter
Jul 12
Full
Jul 18
Last Quarter
Jul 26
New

Hourly Weather History & Observations

Time (EDT) Temp. Dew Point Humidity Pressure Visibility Wind Dir Wind Speed Gust Speed Precip Events Conditions
12:11 AM 66.0 °F 57.0 °F 73% 29.96 in 10.0 mi NW 6.9 mph - N/A   Overcast
12:53 AM 66.0 °F 57.9 °F 75% 29.95 in 10.0 mi NNW 6.9 mph - N/A   Overcast
1:08 AM 66.0 °F 57.9 °F 75% 29.96 in 10.0 mi NNW 5.8 mph - N/A   Overcast
1:20 AM 66.0 °F 57.0 °F 73% 29.96 in 10.0 mi NNW 4.6 mph - N/A   Overcast
1:53 AM 64.9 °F 57.9 °F 78% 29.95 in 10.0 mi NNW 8.1 mph - N/A   Overcast
2:27 AM 63.0 °F 57.0 °F 81% 29.96 in 10.0 mi North 9.2 mph - N/A   Overcast
2:34 AM 63.0 °F 57.0 °F 81% 29.96 in 10.0 mi North 9.2 mph - N/A   Overcast
2:53 AM 62.1 °F 57.0 °F 84% 29.96 in 10.0 mi North 8.1 mph - N/A   Overcast
3:19 AM 62.1 °F 55.9 °F 80% 29.97 in 10.0 mi North 6.9 mph - N/A   Overcast
3:53 AM 62.1 °F 57.0 °F 84% 29.95 in 10.0 mi NNE 6.9 mph - N/A   Overcast
4:11 AM 62.1 °F 57.0 °F 84% 29.96 in 6.0 mi North 10.4 mph - N/A   Haze
4:41 AM 62.1 °F 57.0 °F 84% 29.96 in 6.0 mi NNE 6.9 mph - 0.00 in Rain Light Rain
4:53 AM 61.0 °F 57.0 °F 87% 29.95 in 7.0 mi NNE 8.1 mph - 0.00 in   Overcast
5:53 AM 60.1 °F 57.0 °F 90% 29.94 in 7.0 mi NNE 11.5 mph - 0.00 in   Overcast
6:00 AM 60.1 °F 55.9 °F 86% 29.95 in 6.0 mi NNE 9.2 mph - N/A   Overcast
6:53 AM 60.1 °F 55.9 °F 86% 29.95 in 3.0 mi NNW 9.2 mph - 0.00 in Rain Light Rain
7:03 AM 59.0 °F 55.9 °F 90% 29.96 in 7.0 mi North 9.2 mph - 0.00 in   Overcast
7:24 AM 59.0 °F 55.0 °F 87% 29.97 in 10.0 mi NW 5.8 mph - 0.00 in   Overcast
7:53 AM 57.9 °F 52.0 °F 81% 29.99 in 10.0 mi NNW 12.7 mph - 0.00 in   Overcast
8:14 AM 57.0 °F 51.1 °F 81% 30.01 in 10.0 mi NW 15.0 mph - N/A   Overcast
8:24 AM 55.9 °F 51.1 °F 84% 30.01 in 9.0 mi NW 16.1 mph - 0.00 in Rain Light Rain
8:35 AM 55.0 °F 50.0 °F 83% 30.01 in 6.0 mi NNW 16.1 mph - 0.00 in Rain Light Rain
8:53 AM 53.1 °F 48.0 °F 83% 30.03 in 10.0 mi NW 12.7 mph 23.0 mph 0.00 in   Overcast
9:49 AM 53.6 °F 50.0 °F 88% 30.04 in 4.0 mi North 5.8 mph - 0.01 in Rain Light Rain
9:53 AM 53.6 °F 50.0 °F 88% 30.04 in 5.0 mi NNW 6.9 mph - N/A Rain Light Rain
10:26 AM 55.0 °F 48.9 °F 80% 30.03 in 10.0 mi NNW 9.2 mph - 0.00 in Rain Light Rain
10:44 AM 57.0 °F 52.0 °F 83% 30.04 in 10.0 mi North 9.2 mph - 0.00 in Rain Light Rain
10:53 AM 57.0 °F 51.1 °F 81% 30.03 in 10.0 mi North 9.2 mph - 0.00 in   Overcast
11:08 AM 57.9 °F 48.9 °F 72% 30.03 in 10.0 mi North 8.1 mph - N/A   Overcast
11:20 AM 60.1 °F 48.9 °F 67% 30.04 in 10.0 mi Variable 3.5 mph - N/A   Overcast
11:53 AM 60.1 °F 51.1 °F 72% 30.04 in 10.0 mi WNW 9.2 mph - 0.00 in   Overcast
12:53 PM 62.1 °F 48.0 °F 60% 30.06 in 10.0 mi WNW 8.1 mph - N/A   Mostly Cloudy
1:53 PM 66.9 °F 51.1 °F 57% 30.06 in 10.0 mi NW 9.2 mph - N/A   Partly Cloudy
2:53 PM 69.8 °F 51.8 °F 53% 30.07 in 10.0 mi NW 11.5 mph 19.6 mph N/A   Scattered Clouds
3:53 PM 71.1 °F 53.1 °F 53% 30.06 in 10.0 mi NNW 9.2 mph - N/A   Overcast
4:53 PM 72.0 °F 53.1 °F 51% 30.06 in 10.0 mi NNW 11.5 mph - N/A   Partly Cloudy
5:53 PM 72.0 °F 53.1 °F 51% 30.07 in 10.0 mi North 12.7 mph - N/A   Partly Cloudy
6:53 PM 70.0 °F 55.9 °F 61% 30.08 in 10.0 mi North 11.5 mph - N/A   Clear
7:53 PM 68.0 °F 54.0 °F 61% 30.10 in 10.0 mi North 9.2 mph - N/A   Partly Cloudy
8:53 PM 64.9 °F 55.0 °F 70% 30.12 in 10.0 mi ENE 8.1 mph - N/A   Partly Cloudy
9:53 PM 62.1 °F 54.0 °F 75% 30.13 in 10.0 mi NE 4.6 mph - N/A   Clear
10:53 PM 60.1 °F 53.1 °F 78% 30.15 in 10.0 mi East 3.5 mph - N/A   Clear
11:53 PM 62.1 °F 55.0 °F 78% 30.16 in 10.0 mi NNE 5.8 mph - N/A   Overcast